EST,Max TemperatureF,Mean TemperatureF,Min TemperatureF,Max Dew PointF,MeanDew PointF,Min DewpointF,Max Humidity, Mean Humidity, Min Humidity, Max Sea Level PressureIn, Mean Sea Level PressureIn, Min Sea Level PressureIn, Max VisibilityMiles, Mean VisibilityMiles, Min VisibilityMiles, Max Wind SpeedMPH, Mean Wind SpeedMPH, Max Gust SpeedMPH,PrecipitationIn, CloudCover, Events, WindDirDegrees
2013-2-1,53,44,34,33,22,10,58,43,27,30.37,30.14,29.98,10,10,10,30,14,46,0.00,0,,293
2013-2-2,56,44,31,44,21,11,71,54,37,30.41,30.28,30.02,10,10,10,18,7,25,0.00,0,,256
2013-2-3,48,45,42,39,35,31,83,72,60,30.01,29.93,29.85,10,10,10,15,8,22,0.00,2,,300
2013-2-4,50,44,37,37,26,22,70,57,43,30.14,30.08,29.98,10,10,10,15,7,21,0.00,0,,288
2013-2-5,58,52,46,48,41,38,77,64,51,30.05,29.97,29.90,10,10,10,16,9,23,0.00,0,,263
2013-2-6,61,52,42,45,42,35,89,64,39,30.27,30.13,29.97,10,10,10,9,5,15,0.00,0,,336
2013-2-7,61,56,50,51,47,44,83,72,60,30.30,30.21,29.99,10,9,5,23,12,36,0.21,5,Rain,78
2013-2-8,65,57,48,63,53,37,100,89,77,29.92,29.64,29.43,10,6,0,43,18,54,2.82,6,Fog-Rain,244
2013-2-9,49,45,41,33,28,25,66,54,42,30.35,30.17,29.94,10,10,10,22,12,35,0.00,0,,326
2013-2-10,51,45,39,46,34,26,83,68,53,30.49,30.41,30.34,10,10,10,12,6,18,0.00,1,,38
2013-2-11,64,58,51,61,58,49,97,81,64,30.32,30.07,29.90,10,5,1,25,17,35,0.23,7,Rain,232
2013-2-12,62,55,48,58,47,36,93,67,40,30.04,29.98,29.90,10,10,5,20,6,28,T,1,,276
2013-2-13,58,53,48,56,50,46,100,92,83,29.98,29.75,29.62,10,7,1,21,9,31,0.83,8,Rain,22
2013-2-14,52,45,38,47,39,36,92,79,65,30.09,29.97,29.78,10,10,10,15,6,22,0.00,4,,351
2013-2-15,55,46,37,43,39,35,92,72,51,30.10,30.03,29.96,10,10,9,9,4,14,0.00,0,,22
2013-2-16,52,45,37,43,40,35,92,82,71,29.95,29.79,29.64,10,9,2,20,9,33,0.18,4,Rain,359
2013-2-17,38,36,33,34,21,11,82,61,40,30.25,29.98,29.76,10,10,10,22,16,40,T,3,Rain,315
2013-2-18,47,39,30,31,17,11,62,45,28,30.45,30.38,30.28,10,10,10,17,8,30,0.00,0,,281
2013-2-19,62,54,45,55,48,31,96,73,50,30.33,30.07,29.90,10,8,2,31,12,45,0.06,4,Rain,225
2013-2-20,51,46,40,45,31,22,93,63,32,30.12,30.03,29.93,10,10,10,16,8,24,0.00,0,,297
2013-2-21,46,42,38,33,28,24,79,62,45,30.27,30.17,30.09,10,10,10,14,6,23,0.00,0,,24
2013-2-22,54,46,38,52,39,26,93,74,55,30.32,30.23,30.12,10,10,6,15,9,24,0.18,7,Rain,45
2013-2-23,62,55,47,61,53,46,100,97,93,30.11,29.90,29.81,10,3,0,20,7,24,2.05,8,Fog-Rain,240
2013-2-24,51,45,38,47,45,37,100,90,80,30.01,29.84,29.76,10,5,0,12,5,18,0.04,6,Fog-Rain,319
2013-2-25,46,43,40,43,33,30,96,77,58,30.19,30.13,30.02,10,10,6,16,10,29,0.00,1,,30
2013-2-26,62,53,43,61,54,39,100,86,71,30.12,29.80,29.60,10,3,1,29,13,39,0.96,7,Rain,145
2013-2-27,57,53,49,55,48,43,100,81,61,29.78,29.70,29.62,10,4,0,18,9,28,0.00,2,Fog,248
2013-2-28,56,51,46,46,38,31,93,72,50,29.80,29.74,29.68,10,10,5,16,11,25,0.00,2,,283